Regional Weather Roundup
Issued by NWS

Home | Current Version | Previous Version | Text Only | Print | Product List | Glossary Off
Versions: 1 2 3 4 5 6 7 8 9 10 11 12 13 14 15 16 17 18 19 20 21 22 23 24 25 26 27

000
ASUS45 KPSR 170710
RWRAZ

ARIZONA HOURLY REGIONAL WEATHER ROUNDUP
NATIONAL WEATHER SERVICE PHOENIX AZ
1200 AM MST SUN DEC 17 2017

NOTE: FAIR INDICATES FEW OR NO CLOUDS BELOW 12,000 FEET WITH NO
SIGNIFICANT WEATHER AND/OR OBSTRUCTIONS TO VISIBILITY.

AZZ001>003-036-170800-
NORTHWEST ARIZONA

CITY           SKY/WX    TMP DP  RH WIND       PRES   REMARKS
BULLHEAD CITY  PTCLDY    61  23  23 N21       29.82S
KINGMAN        PTCLDY    37   9  31 E10       29.87R WCI  30
$$

AZZ004>008-015-016-018-170800-
NORTH CENTRAL ARIZONA

CITY           SKY/WX    TMP DP  RH WIND       PRES   REMARKS
GRAND CANYON   MOCLDY    20   2  45 CALM      29.91S
WILLIAMS       MOCLDY    30   9  40 SE8       29.89R WCI  23
PRESCOTT       CLEAR     30  12  47 VRB3      29.88R
FLAGSTAFF      MOCLDY    28   9  44 CALM      29.90S
PAYSON         PTCLDY    39  12  33 E3        29.89S
PAGE           PTCLDY    31  10  41 CALM      29.89S
$$

AZZ009>014-017-170800-
NORTHEAST ARIZONA

CITY           SKY/WX    TMP DP  RH WIND       PRES   REMARKS
WINSLOW        CLOUDY    35   9  33 SE5       29.90R WCI  31
SAINT JOHNS    CLOUDY    32   1  26 SE3       29.90R
WINDOW ROCK    CLOUDY    36  11  35 CALM      29.92R
SHOW LOW       CLOUDY    41  12  30 S14G20    29.90S
$$

AZZ540-542>544-546-548-170800-
GREATER PHOENIX AREA

CITY           SKY/WX    TMP DP  RH WIND       PRES   REMARKS
PHOENIX        PTCLDY    53  24  32 E7        29.77S
BUCKEYE        CLOUDY    45  10  24 N6        29.78S
LUKE AFB       CLEAR     47  24  40 N7        29.77S
DEER VALLEY    CLEAR     52  17  25 E3        29.79R
SCOTTSDALE     CLEAR     51  25  36 CALM      29.80S
MESA-GATEWAY   MOCLDY    46  21  36 SE7       29.80S
$$

AZZ539-553-170800-
SOUTHWEST MARICOPA COUNTY AND PINAL COUNTY

CITY           SKY/WX    TMP DP  RH WIND       PRES   REMARKS
CASA GRANDE    NOT AVBL
$$

AZZ503-504-507>509-170800-
SOUTHEAST ARIZONA

CITY           SKY/WX    TMP DP  RH WIND       PRES   REMARKS
TUCSON         MOCLDY    54  27  35 SE5       29.84F
DAVIS-MONTHAN  MOCLDY    54  26  34 SE8       29.82F
NOGALES        MOCLDY    52  37  56 S9        29.85F
SIERRA VISTA   MOCLDY    49  36  62 CALM      29.89F
DOUGLAS        PTCLDY    48  38  68 SE9       29.91F
SAFFORD        MOCLDY    42  14  32 SE7       29.86F
$$

AZZ532-170800-
SOUTHWEST ARIZONA

CITY           SKY/WX    TMP DP  RH WIND       PRES   REMARKS
YUMA           PTCLDY    56  23  27 N12       29.72R
$$

CAZ041-043-047-048-061-525>527-560>570-170800-
SOUTHERN CALIFORNIA

CITY           SKY/WX    TMP DP  RH WIND       PRES   REMARKS
DOWNTOWN L.A.  CLEAR     54  48  80 CALM      29.79R
L.A. AIRPORT   CLEAR     58  50  75 VRB5      29.80R
SAN DIEGO      PTCLDY    57  51  80 N3        29.79R
BURBANK        CLEAR     62  27  26 VRB3      29.80R
ONTARIO        PTCLDY    55  46  71 NW5       29.79R
RIVERSIDE      PTCLDY    58  41  53 N8        29.80R
PALM SPRINGS   PTCLDY    65  28  24 NW5       29.82R
EL CENTRO NAS  MOCLDY    50  23  34 NW8       29.77R
IMPERIAL       MOCLDY    51  27  39 W5        29.74R
BLYTHE         PTCLDY    53  14  21 N14       29.77S
NEEDLES        PTCLDY    56  14  19 N7        29.83R
$$

NVZ020-UTZ003-170800-
SOUTHERN NEVADA-UTAH

CITY           SKY/WX    TMP DP  RH WIND       PRES   REMARKS
LAS VEGAS      CLOUDY    54  26  34 N20G29    29.91R
SALT LAKE CITY CLOUDY    31  27  85 NW6       30.08R WCI  25
$$

NMZ009-TXZ055-170800-
NEW MEXICO-WEST TEXAS

CITY           SKY/WX    TMP DP  RH WIND       PRES   REMARKS
ALBUQUERQUE    CLOUDY    31  14  49 SE7       29.90R WCI  24
EL PASO        MOCLDY    47  32  56 S7        29.93R
$$


........................KEY........................
SKY/WX - SKY CONDITION/WEATHER
TMP    - TEMPERATURE IN FAHRENHEIT
DP     - DEW POINT IN FAHRENHEIT
RH     - RELATIVE HUMIDITY IN PERCENT
WIND   - DIRECTION AND SPEED IN MILES PER HOUR (MPH)
VRB    - VARIABLE WIND DIRECTION
PRES   - MEAN SEA LEVEL PRESSURE IN INCHES OF MERCURY
         F - FALLING PRESSURE   R - RISING PRESSURE
         S - STEADY PRESSURE
VSB    - VISIBILITY IN MILES
HX     - HEAT INDEX IN FAHRENHEIT
WCI    - WIND CHILL INDEX IN FAHRENHEIT
TC     - TEMPERATURE IN CELSIUS WHICH IS ALSO KNOWN AS
         TEMPERATURE IN CENTIGRADE
AFB    - AIR FORCE BASE
         LUKE AFB IS LUKE AIR FORCE BASE
         DAVIS-MONTHAN IS DAVIS-MONTHAN AIR FORCE BASE
NAS    - NAVAL AIR STATION
         EL CENTRO NAS IS EL CENTRO NAVAL AIR STATION
N/A    - NOT AVAILABLE





USA.gov is the U.S. government's official web portal to all federal, state and local government web resources and services.